owner,sensor,date,latitude,longitude,vertical_datum,sea_water_temperature,qcFlag 
ENP,ioos.station.NOAA.NDBC:BOBF1:1,2014-11-01T00:00:00Z,25.0270,-80.6810,1.0,28.27,2 
ENP,ioos.station.NOAA.NDBC:BOBF1:1,2014-11-01T01:00:00Z,25.0270,-80.6810,1.0,27.98,2 
ENP,ioos.station.NOAA.NDBC:BOBF1:1,2014-11-01T02:00:00Z,25.0270,-80.6810,1.0,27.5,2 
ENP,ioos.station.NOAA.NDBC:BOBF1:1,2014-11-01T04:00:00Z,25.0270,-80.6810,1.0,26.08,2 
ENP,ioos.station.NOAA.NDBC:BOBF1:1,2014-11-01T05:00:00Z,25.0270,-80.6810,1.0,25.64,2 
ENP,ioos.station.NOAA.NDBC:BOBF1:1,2014-11-01T07:00:00Z,25.0270,-80.6810,1.0,25.18,2 
ENP,ioos.station.NOAA.NDBC:BOBF1:1,2014-11-01T08:00:00Z,25.0270,-80.6810,1.0,24.85,2 
ENP,ioos.station.NOAA.NDBC:BOBF1:1,2014-11-01T10:00:00Z,25.0270,-80.6810,1.0,25.16,2 
ENP,ioos.station.NOAA.NDBC:BOBF1:1,2014-11-01T11:00:00Z,25.0270,-80.6810,1.0,24.95,2 
ENP,ioos.station.NOAA.NDBC:BOBF1:1,2014-11-01T12:00:00Z,25.0270,-80.6810,1.0,24.74,2 
ENP,ioos.station.NOAA.NDBC:BOBF1:1,2014-11-01T13:00:00Z,25.0270,-80.6810,1.0,24.59,2 
ENP,ioos.station.NOAA.NDBC:BOBF1:1,2014-11-01T14:00:00Z,25.0270,-80.6810,1.0,24.44,2 
ENP,ioos.station.NOAA.NDBC:BOBF1:1,2014-11-01T15:00:00Z,25.0270,-80.6810,1.0,24.5,2 
ENP,ioos.station.NOAA.NDBC:BOBF1:1,2014-11-01T16:00:00Z,25.0270,-80.6810,1.0,24.83,2 
ENP,ioos.station.NOAA.NDBC:BOBF1:1,2014-11-01T18:00:00Z,25.0270,-80.6810,1.0,24.95,2 
ENP,ioos.station.NOAA.NDBC:BOBF1:1,2014-11-01T19:00:00Z,25.0270,-80.6810,1.0,25.4,2 
ENP,ioos.station.NOAA.NDBC:BOBF1:1,2014-11-01T20:00:00Z,25.0270,-80.6810,1.0,25.61,2 
ENP,ioos.station.NOAA.NDBC:BOBF1:1,2014-11-01T22:00:00Z,25.0270,-80.6810,1.0,25.46,2 
ENP,ioos.station.NOAA.NDBC:BOBF1:1,2014-11-01T23:00:00Z,25.0270,-80.6810,1.0,24.86,2 
ENP,ioos.station.NOAA.NDBC:BOBF1:1,2014-11-02T00:00:00Z,25.0270,-80.6810,1.0,24.64,2 
ENP,ioos.station.NOAA.NDBC:BOBF1:1,2014-11-02T02:00:00Z,25.0270,-80.6810,1.0,24.25,2 
ENP,ioos.station.NOAA.NDBC:BOBF1:1,2014-11-02T03:00:00Z,25.0270,-80.6810,1.0,23.36,2 
ENP,ioos.station.NOAA.NDBC:BOBF1:1,2014-11-02T05:00:00Z,25.0270,-80.6810,1.0,21.35,2 
ENP,ioos.station.NOAA.NDBC:BOBF1:1,2014-11-02T06:00:00Z,25.0270,-80.6810,1.0,21.23,2 
ENP,ioos.station.NOAA.NDBC:BOBF1:1,2014-11-02T07:00:00Z,25.0270,-80.6810,1.0,21.45,2 
ENP,ioos.station.NOAA.NDBC:BOBF1:1,2014-11-02T09:00:00Z,25.0270,-80.6810,1.0,20.98,2 
ENP,ioos.station.NOAA.NDBC:BOBF1:1,2014-11-02T10:00:00Z,25.0270,-80.6810,1.0,20.72,2 
ENP,ioos.station.NOAA.NDBC:BOBF1:1,2014-11-02T11:00:00Z,25.0270,-80.6810,1.0,20.47,2 
ENP,ioos.station.NOAA.NDBC:BOBF1:1,2014-11-02T13:00:00Z,25.0270,-80.6810,1.0,19.98,2 
ENP,ioos.station.NOAA.NDBC:BOBF1:1,2014-11-02T14:00:00Z,25.0270,-80.6810,1.0,20.06,2 
ENP,ioos.station.NOAA.NDBC:BOBF1:1,2014-11-02T15:00:00Z,25.0270,-80.6810,1.0,20.41,2 
ENP,ioos.station.NOAA.NDBC:BOBF1:1,2014-11-02T16:00:00Z,25.0270,-80.6810,1.0,20.91,2 
ENP,ioos.station.NOAA.NDBC:BOBF1:1,2014-11-02T17:00:00Z,25.0270,-80.6810,1.0,21.38,2 
ENP,ioos.station.NOAA.NDBC:BOBF1:1,2014-11-02T18:00:00Z,25.0270,-80.6810,1.0,21.81,2 
ENP,ioos.station.NOAA.NDBC:BOBF1:1,2014-11-02T19:00:00Z,25.0270,-80.6810,1.0,22.16,2 
ENP,ioos.station.NOAA.NDBC:BOBF1:1,2014-11-02T21:00:00Z,25.0270,-80.6810,1.0,22.33,2 
ENP,ioos.station.NOAA.NDBC:BOBF1:1,2014-11-02T22:00:00Z,25.0270,-80.6810,1.0,22.24,2 
ENP,ioos.station.NOAA.NDBC:BOBF1:1,2014-11-03T00:00:00Z,25.0270,-80.6810,1.0,21.78,2 
ENP,ioos.station.NOAA.NDBC:BOBF1:1,2014-11-03T01:00:00Z,25.0270,-80.6810,1.0,21.54,2 
ENP,ioos.station.NOAA.NDBC:BOBF1:1,2014-11-03T02:00:00Z,25.0270,-80.6810,1.0,21.34,2 
ENP,ioos.station.NOAA.NDBC:BOBF1:1,2014-11-03T03:00:00Z,25.0270,-80.6810,1.0,20.9,2 
ENP,ioos.station.NOAA.NDBC:BOBF1:1,2014-11-03T05:00:00Z,25.0270,-80.6810,1.0,19.88,2 
ENP,ioos.station.NOAA.NDBC:BOBF1:1,2014-11-03T06:00:00Z,25.0270,-80.6810,1.0,19.55,2 
ENP,ioos.station.NOAA.NDBC:BOBF1:1,2014-11-03T08:00:00Z,25.0270,-80.6810,1.0,19.48,2 
ENP,ioos.station.NOAA.NDBC:BOBF1:1,2014-11-03T10:00:00Z,25.0270,-80.6810,1.0,19.23,2 
ENP,ioos.station.NOAA.NDBC:BOBF1:1,2014-11-03T11:00:00Z,25.0270,-80.6810,1.0,19.1,2 
ENP,ioos.station.NOAA.NDBC:BOBF1:1,2014-11-03T13:00:00Z,25.0270,-80.6810,1.0,18.85,2 
ENP,ioos.station.NOAA.NDBC:BOBF1:1,2014-11-03T14:00:00Z,25.0270,-80.6810,1.0,18.89,2 
ENP,ioos.station.NOAA.NDBC:BOBF1:1,2014-11-03T15:00:00Z,25.0270,-80.6810,1.0,19.3,2 
ENP,ioos.station.NOAA.NDBC:BOBF1:1,2014-11-03T16:00:00Z,25.0270,-80.6810,1.0,19.8,2 
ENP,ioos.station.NOAA.NDBC:BOBF1:1,2014-11-03T17:00:00Z,25.0270,-80.6810,1.0,20.43,2 
ENP,ioos.station.NOAA.NDBC:BOBF1:1,2014-11-03T18:00:00Z,25.0270,-80.6810,1.0,21.14,2 
ENP,ioos.station.NOAA.NDBC:BOBF1:1,2014-11-03T19:00:00Z,25.0270,-80.6810,1.0,21.64,2 
ENP,ioos.station.NOAA.NDBC:BOBF1:1,2014-11-03T21:00:00Z,25.0270,-80.6810,1.0,21.83,2 
ENP,ioos.station.NOAA.NDBC:BOBF1:1,2014-11-03T22:00:00Z,25.0270,-80.6810,1.0,21.5,2 
ENP,ioos.station.NOAA.NDBC:BOBF1:1,2014-11-03T23:00:00Z,25.0270,-80.6810,1.0,21.23,2 
ENP,ioos.station.NOAA.NDBC:BOBF1:1,2014-11-04T01:00:00Z,25.0270,-80.6810,1.0,20.98,2 
ENP,ioos.station.NOAA.NDBC:BOBF1:1,2014-11-04T02:00:00Z,25.0270,-80.6810,1.0,21.06,2 
ENP,ioos.station.NOAA.NDBC:BOBF1:1,2014-11-04T03:00:00Z,25.0270,-80.6810,1.0,21.14,2 
ENP,ioos.station.NOAA.NDBC:BOBF1:1,2014-11-04T05:00:00Z,25.0270,-80.6810,1.0,20.95,2 
ENP,ioos.station.NOAA.NDBC:BOBF1:1,2014-11-04T06:00:00Z,25.0270,-80.6810,1.0,20.82,2 
ENP,ioos.station.NOAA.NDBC:BOBF1:1,2014-11-04T08:00:00Z,25.0270,-80.6810,1.0,20.55,2 
ENP,ioos.station.NOAA.NDBC:BOBF1:1,2014-11-04T09:00:00Z,25.0270,-80.6810,1.0,20.57,2 
ENP,ioos.station.NOAA.NDBC:BOBF1:1,2014-11-04T10:00:00Z,25.0270,-80.6810,1.0,20.53,2 
ENP,ioos.station.NOAA.NDBC:BOBF1:1,2014-11-04T11:00:00Z,25.0270,-80.6810,1.0,20.36,2 
ENP,ioos.station.NOAA.NDBC:BOBF1:1,2014-11-04T13:00:00Z,25.0270,-80.6810,1.0,19.65,2 
ENP,ioos.station.NOAA.NDBC:BOBF1:1,2014-11-04T14:00:00Z,25.0270,-80.6810,1.0,19.6,2 
ENP,ioos.station.NOAA.NDBC:BOBF1:1,2014-11-04T16:00:00Z,25.0270,-80.6810,1.0,20.01,2 
ENP,ioos.station.NOAA.NDBC:BOBF1:1,2014-11-04T18:00:00Z,25.0270,-80.6810,1.0,21.4,2 
ENP,ioos.station.NOAA.NDBC:BOBF1:1,2014-11-04T19:00:00Z,25.0270,-80.6810,1.0,22.27,2 
ENP,ioos.station.NOAA.NDBC:BOBF1:1,2014-11-04T21:00:00Z,25.0270,-80.6810,1.0,22.56,2 
ENP,ioos.station.NOAA.NDBC:BOBF1:1,2014-11-04T22:00:00Z,25.0270,-80.6810,1.0,22.5,2 
ENP,ioos.station.NOAA.NDBC:BOBF1:1,2014-11-04T23:00:00Z,25.0270,-80.6810,1.0,22.4,2 
ENP,ioos.station.NOAA.NDBC:BOBF1:1,2014-11-05T01:00:00Z,25.0270,-80.6810,1.0,21.74,2 
ENP,ioos.station.NOAA.NDBC:BOBF1:1,2014-11-05T02:00:00Z,25.0270,-80.6810,1.0,21.12,2 
ENP,ioos.station.NOAA.NDBC:BOBF1:1,2014-11-05T03:00:00Z,25.0270,-80.6810,1.0,20.97,2 
ENP,ioos.station.NOAA.NDBC:BOBF1:1,2014-11-05T05:00:00Z,25.0270,-80.6810,1.0,20.8,2 
ENP,ioos.station.NOAA.NDBC:BOBF1:1,2014-11-05T06:00:00Z,25.0270,-80.6810,1.0,20.71,2 
ENP,ioos.station.NOAA.NDBC:BOBF1:1,2014-11-05T07:00:00Z,25.0270,-80.6810,1.0,20.71,2 
ENP,ioos.station.NOAA.NDBC:BOBF1:1,2014-11-05T09:00:00Z,25.0270,-80.6810,1.0,21.11,2 
ENP,ioos.station.NOAA.NDBC:BOBF1:1,2014-11-05T10:00:00Z,25.0270,-80.6810,1.0,21.2,2 
ENP,ioos.station.NOAA.NDBC:BOBF1:1,2014-11-05T11:00:00Z,25.0270,-80.6810,1.0,21.14,2 
ENP,ioos.station.NOAA.NDBC:BOBF1:1,2014-11-05T13:00:00Z,25.0270,-80.6810,1.0,20.7,2 
ENP,ioos.station.NOAA.NDBC:BOBF1:1,2014-11-05T14:00:00Z,25.0270,-80.6810,1.0,20.78,2 
ENP,ioos.station.NOAA.NDBC:BOBF1:1,2014-11-05T15:00:00Z,25.0270,-80.6810,1.0,20.95,2 
ENP,ioos.station.NOAA.NDBC:BOBF1:1,2014-11-05T16:00:00Z,25.0270,-80.6810,1.0,21.29,2 
ENP,ioos.station.NOAA.NDBC:BOBF1:1,2014-11-05T17:00:00Z,25.0270,-80.6810,1.0,21.59,2 
ENP,ioos.station.NOAA.NDBC:BOBF1:1,2014-11-05T19:00:00Z,25.0270,-80.6810,1.0,22.35,2 
ENP,ioos.station.NOAA.NDBC:BOBF1:1,2014-11-05T21:00:00Z,25.0270,-80.6810,1.0,22.65,2 
ENP,ioos.station.NOAA.NDBC:BOBF1:1,2014-11-05T22:00:00Z,25.0270,-80.6810,1.0,22.62,2 
ENP,ioos.station.NOAA.NDBC:BOBF1:1,2014-11-05T23:00:00Z,25.0270,-80.6810,1.0,22.6,2 
ENP,ioos.station.NOAA.NDBC:BOBF1:1,2014-11-06T00:00:00Z,25.0270,-80.6810,1.0,22.56,2 
ENP,ioos.station.NOAA.NDBC:BOBF1:1,2014-11-06T01:00:00Z,25.0270,-80.6810,1.0,22.44,2 
ENP,ioos.station.NOAA.NDBC:BOBF1:1,2014-11-06T02:00:00Z,25.0270,-80.6810,1.0,22.31,2 
ENP,ioos.station.NOAA.NDBC:BOBF1:1,2014-11-06T03:00:00Z,25.0270,-80.6810,1.0,22.11,2 
ENP,ioos.station.NOAA.NDBC:BOBF1:1,2014-11-06T05:00:00Z,25.0270,-80.6810,1.0,21.75,2 
ENP,ioos.station.NOAA.NDBC:BOBF1:1,2014-11-06T06:00:00Z,25.0270,-80.6810,1.0,21.67,2 
ENP,ioos.station.NOAA.NDBC:BOBF1:1,2014-11-06T07:00:00Z,25.0270,-80.6810,1.0,21.64,2 
ENP,ioos.station.NOAA.NDBC:BOBF1:1,2014-11-06T09:00:00Z,25.0270,-80.6810,1.0,21.79,2 
ENP,ioos.station.NOAA.NDBC:BOBF1:1,2014-11-06T10:00:00Z,25.0270,-80.6810,1.0,21.72,2 
ENP,ioos.station.NOAA.NDBC:BOBF1:1,2014-11-06T11:00:00Z,25.0270,-80.6810,1.0,21.67,2 
ENP,ioos.station.NOAA.NDBC:BOBF1:1,2014-11-06T12:00:00Z,25.0270,-80.6810,1.0,21.65,2 
ENP,ioos.station.NOAA.NDBC:BOBF1:1,2014-11-06T13:00:00Z,25.0270,-80.6810,1.0,21.59,2 
ENP,ioos.station.NOAA.NDBC:BOBF1:1,2014-11-06T14:00:00Z,25.0270,-80.6810,1.0,21.74,2 
ENP,ioos.station.NOAA.NDBC:BOBF1:1,2014-11-06T15:00:00Z,25.0270,-80.6810,1.0,21.96,2 
ENP,ioos.station.NOAA.NDBC:BOBF1:1,2014-11-06T17:00:00Z,25.0270,-80.6810,1.0,22.49,2 
ENP,ioos.station.NOAA.NDBC:BOBF1:1,2014-11-06T18:00:00Z,25.0270,-80.6810,1.0,22.95,2 
ENP,ioos.station.NOAA.NDBC:BOBF1:1,2014-11-06T19:00:00Z,25.0270,-80.6810,1.0,23.87,2 
ENP,ioos.station.NOAA.NDBC:BOBF1:1,2014-11-06T21:00:00Z,25.0270,-80.6810,1.0,24.47,2 
ENP,ioos.station.NOAA.NDBC:BOBF1:1,2014-11-06T22:00:00Z,25.0270,-80.6810,1.0,24.32,2 
ENP,ioos.station.NOAA.NDBC:BOBF1:1,2014-11-06T23:00:00Z,25.0270,-80.6810,1.0,24.15,2 
ENP,ioos.station.NOAA.NDBC:BOBF1:1,2014-11-07T01:00:00Z,25.0270,-80.6810,1.0,24.14,2 
ENP,ioos.station.NOAA.NDBC:BOBF1:1,2014-11-07T02:00:00Z,25.0270,-80.6810,1.0,24.19,2 
ENP,ioos.station.NOAA.NDBC:BOBF1:1,2014-11-07T03:00:00Z,25.0270,-80.6810,1.0,24.04,2 
ENP,ioos.station.NOAA.NDBC:BOBF1:1,2014-11-07T05:00:00Z,25.0270,-80.6810,1.0,23.35,2 
ENP,ioos.station.NOAA.NDBC:BOBF1:1,2014-11-07T06:00:00Z,25.0270,-80.6810,1.0,23.34,2 
ENP,ioos.station.NOAA.NDBC:BOBF1:1,2014-11-07T07:00:00Z,25.0270,-80.6810,1.0,23.24,2 
ENP,ioos.station.NOAA.NDBC:BOBF1:1,2014-11-07T09:00:00Z,25.0270,-80.6810,1.0,23.2,2 
ENP,ioos.station.NOAA.NDBC:BOBF1:1,2014-11-07T10:00:00Z,25.0270,-80.6810,1.0,23.15,2 
ENP,ioos.station.NOAA.NDBC:BOBF1:1,2014-11-07T11:00:00Z,25.0270,-80.6810,1.0,23.11,2 
ENP,ioos.station.NOAA.NDBC:BOBF1:1,2014-11-07T12:00:00Z,25.0270,-80.6810,1.0,23.22,2 
ENP,ioos.station.NOAA.NDBC:BOBF1:1,2014-11-07T13:00:00Z,25.0270,-80.6810,1.0,23.31,2 
ENP,ioos.station.NOAA.NDBC:BOBF1:1,2014-11-07T14:00:00Z,25.0270,-80.6810,1.0,23.29,2 
ENP,ioos.station.NOAA.NDBC:BOBF1:1,2014-11-07T16:00:00Z,25.0270,-80.6810,1.0,23.49,2 
ENP,ioos.station.NOAA.NDBC:BOBF1:1,2014-11-07T17:00:00Z,25.0270,-80.6810,1.0,23.7,2 
ENP,ioos.station.NOAA.NDBC:BOBF1:1,2014-11-07T18:00:00Z,25.0270,-80.6810,1.0,24.01,2 
ENP,ioos.station.NOAA.NDBC:BOBF1:1,2014-11-07T19:00:00Z,25.0270,-80.6810,1.0,24.87,2 
ENP,ioos.station.NOAA.NDBC:BOBF1:1,2014-11-07T21:00:00Z,25.0270,-80.6810,1.0,25.68,2 
ENP,ioos.station.NOAA.NDBC:BOBF1:1,2014-11-07T22:00:00Z,25.0270,-80.6810,1.0,25.79,2 
ENP,ioos.station.NOAA.NDBC:BOBF1:1,2014-11-07T23:00:00Z,25.0270,-80.6810,1.0,25.69,2 
ENP,ioos.station.NOAA.NDBC:BOBF1:1,2014-11-08T01:00:00Z,25.0270,-80.6810,1.0,25.58,2 
ENP,ioos.station.NOAA.NDBC:BOBF1:1,2014-11-08T02:00:00Z,25.0270,-80.6810,1.0,25.45,2 
ENP,ioos.station.NOAA.NDBC:BOBF1:1,2014-11-08T03:00:00Z,25.0270,-80.6810,1.0,25.45,2 
ENP,ioos.station.NOAA.NDBC:BOBF1:1,2014-11-08T05:00:00Z,25.0270,-80.6810,1.0,24.6,2 
ENP,ioos.station.NOAA.NDBC:BOBF1:1,2014-11-08T07:00:00Z,25.0270,-80.6810,1.0,24.28,2 
ENP,ioos.station.NOAA.NDBC:BOBF1:1,2014-11-08T09:00:00Z,25.0270,-80.6810,1.0,24.36,2 
ENP,ioos.station.NOAA.NDBC:BOBF1:1,2014-11-08T10:00:00Z,25.0270,-80.6810,1.0,24.2,2 
ENP,ioos.station.NOAA.NDBC:BOBF1:1,2014-11-08T11:00:00Z,25.0270,-80.6810,1.0,24.03,2 
ENP,ioos.station.NOAA.NDBC:BOBF1:1,2014-11-08T12:00:00Z,25.0270,-80.6810,1.0,23.89,2 
ENP,ioos.station.NOAA.NDBC:BOBF1:1,2014-11-08T13:00:00Z,25.0270,-80.6810,1.0,23.88,2 
ENP,ioos.station.NOAA.NDBC:BOBF1:1,2014-11-08T14:00:00Z,25.0270,-80.6810,1.0,24.03,2 
ENP,ioos.station.NOAA.NDBC:BOBF1:1,2014-11-08T16:00:00Z,25.0270,-80.6810,1.0,24.49,2 
ENP,ioos.station.NOAA.NDBC:BOBF1:1,2014-11-08T17:00:00Z,25.0270,-80.6810,1.0,24.79,2 
ENP,ioos.station.NOAA.NDBC:BOBF1:1,2014-11-08T19:00:00Z,25.0270,-80.6810,1.0,25.45,2 
ENP,ioos.station.NOAA.NDBC:BOBF1:1,2014-11-08T20:00:00Z,25.0270,-80.6810,1.0,26.35,2 
ENP,ioos.station.NOAA.NDBC:BOBF1:1,2014-11-08T21:00:00Z,25.0270,-80.6810,1.0,26.48,2 
ENP,ioos.station.NOAA.NDBC:BOBF1:1,2014-11-08T22:00:00Z,25.0270,-80.6810,1.0,26.44,2 
ENP,ioos.station.NOAA.NDBC:BOBF1:1,2014-11-09T00:00:00Z,25.0270,-80.6810,1.0,25.98,2 
ENP,ioos.station.NOAA.NDBC:BOBF1:1,2014-11-09T01:00:00Z,25.0270,-80.6810,1.0,25.87,2 
ENP,ioos.station.NOAA.NDBC:BOBF1:1,2014-11-09T02:00:00Z,25.0270,-80.6810,1.0,25.74,2 
ENP,ioos.station.NOAA.NDBC:BOBF1:1,2014-11-09T03:00:00Z,25.0270,-80.6810,1.0,25.72,2 
ENP,ioos.station.NOAA.NDBC:BOBF1:1,2014-11-09T05:00:00Z,25.0270,-80.6810,1.0,25.77,2 
ENP,ioos.station.NOAA.NDBC:BOBF1:1,2014-11-09T06:00:00Z,25.0270,-80.6810,1.0,25.44,2 
ENP,ioos.station.NOAA.NDBC:BOBF1:1,2014-11-09T07:00:00Z,25.0270,-80.6810,1.0,25.31,2 
ENP,ioos.station.NOAA.NDBC:BOBF1:1,2014-11-09T09:00:00Z,25.0270,-80.6810,1.0,24.87,2 
ENP,ioos.station.NOAA.NDBC:BOBF1:1,2014-11-09T10:00:00Z,25.0270,-80.6810,1.0,24.89,2 
ENP,ioos.station.NOAA.NDBC:BOBF1:1,2014-11-09T11:00:00Z,25.0270,-80.6810,1.0,24.95,2 
ENP,ioos.station.NOAA.NDBC:BOBF1:1,2014-11-09T14:00:00Z,25.0270,-80.6810,1.0,25.04,2 
ENP,ioos.station.NOAA.NDBC:BOBF1:1,2014-11-09T15:00:00Z,25.0270,-80.6810,1.0,25.19,2 
ENP,ioos.station.NOAA.NDBC:BOBF1:1,2014-11-09T17:00:00Z,25.0270,-80.6810,1.0,25.55,2 
ENP,ioos.station.NOAA.NDBC:BOBF1:1,2014-11-09T18:00:00Z,25.0270,-80.6810,1.0,25.38,2 
ENP,ioos.station.NOAA.NDBC:BOBF1:1,2014-11-09T19:00:00Z,25.0270,-80.6810,1.0,25.34,2 
ENP,ioos.station.NOAA.NDBC:BOBF1:1,2014-11-09T20:00:00Z,25.0270,-80.6810,1.0,25.51,2 
ENP,ioos.station.NOAA.NDBC:BOBF1:1,2014-11-09T21:00:00Z,25.0270,-80.6810,1.0,25.85,2 
ENP,ioos.station.NOAA.NDBC:BOBF1:1,2014-11-09T22:00:00Z,25.0270,-80.6810,1.0,25.26,2 
ENP,ioos.station.NOAA.NDBC:BOBF1:1,2014-11-10T00:00:00Z,25.0270,-80.6810,1.0,25.07,2 
ENP,ioos.station.NOAA.NDBC:BOBF1:1,2014-11-10T01:00:00Z,25.0270,-80.6810,1.0,24.95,2 
ENP,ioos.station.NOAA.NDBC:BOBF1:1,2014-11-10T02:00:00Z,25.0270,-80.6810,1.0,24.71,2 
ENP,ioos.station.NOAA.NDBC:BOBF1:1,2014-11-10T03:00:00Z,25.0270,-80.6810,1.0,24.55,2 
ENP,ioos.station.NOAA.NDBC:BOBF1:1,2014-11-10T04:00:00Z,25.0270,-80.6810,1.0,24.41,2 
ENP,ioos.station.NOAA.NDBC:BOBF1:1,2014-11-10T06:00:00Z,25.0270,-80.6810,1.0,24.38,2 
ENP,ioos.station.NOAA.NDBC:BOBF1:1,2014-11-10T08:00:00Z,25.0270,-80.6810,1.0,24.12,2 
ENP,ioos.station.NOAA.NDBC:BOBF1:1,2014-11-10T09:00:00Z,25.0270,-80.6810,1.0,23.74,2 
ENP,ioos.station.NOAA.NDBC:BOBF1:1,2014-11-10T10:00:00Z,25.0270,-80.6810,1.0,23.45,2 
ENP,ioos.station.NOAA.NDBC:BOBF1:1,2014-11-10T11:00:00Z,25.0270,-80.6810,1.0,23.41,2 
ENP,ioos.station.NOAA.NDBC:BOBF1:1,2014-11-10T12:00:00Z,25.0270,-80.6810,1.0,23.28,2 
ENP,ioos.station.NOAA.NDBC:BOBF1:1,2014-11-10T13:00:00Z,25.0270,-80.6810,1.0,23.18,2 
ENP,ioos.station.NOAA.NDBC:BOBF1:1,2014-11-10T14:00:00Z,25.0270,-80.6810,1.0,23.25,2 
ENP,ioos.station.NOAA.NDBC:BOBF1:1,2014-11-10T16:00:00Z,25.0270,-80.6810,1.0,23.73,2 
ENP,ioos.station.NOAA.NDBC:BOBF1:1,2014-11-10T17:00:00Z,25.0270,-80.6810,1.0,23.93,2 
ENP,ioos.station.NOAA.NDBC:BOBF1:1,2014-11-10T18:00:00Z,25.0270,-80.6810,1.0,24.27,2 
ENP,ioos.station.NOAA.NDBC:BOBF1:1,2014-11-10T20:00:00Z,25.0270,-80.6810,1.0,24.63,2 
ENP,ioos.station.NOAA.NDBC:BOBF1:1,2014-11-10T21:00:00Z,25.0270,-80.6810,1.0,24.83,2 
ENP,ioos.station.NOAA.NDBC:BOBF1:1,2014-11-10T22:00:00Z,25.0270,-80.6810,1.0,25.15,2 
ENP,ioos.station.NOAA.NDBC:BOBF1:1,2014-11-10T23:00:00Z,25.0270,-80.6810,1.0,25.29,2 
ENP,ioos.station.NOAA.NDBC:BOBF1:1,2014-11-11T01:00:00Z,25.0270,-80.6810,1.0,24.91,2 
ENP,ioos.station.NOAA.NDBC:BOBF1:1,2014-11-11T02:00:00Z,25.0270,-80.6810,1.0,24.83,2 
ENP,ioos.station.NOAA.NDBC:BOBF1:1,2014-11-11T03:00:00Z,25.0270,-80.6810,1.0,24.58,2 
ENP,ioos.station.NOAA.NDBC:BOBF1:1,2014-11-11T05:00:00Z,25.0270,-80.6810,1.0,24.01,2 
ENP,ioos.station.NOAA.NDBC:BOBF1:1,2014-11-11T06:00:00Z,25.0270,-80.6810,1.0,24.04,2 
ENP,ioos.station.NOAA.NDBC:BOBF1:1,2014-11-11T07:00:00Z,25.0270,-80.6810,1.0,24.12,2 
ENP,ioos.station.NOAA.NDBC:BOBF1:1,2014-11-11T09:00:00Z,25.0270,-80.6810,1.0,23.57,2 
ENP,ioos.station.NOAA.NDBC:BOBF1:1,2014-11-11T10:00:00Z,25.0270,-80.6810,1.0,23.06,2 
ENP,ioos.station.NOAA.NDBC:BOBF1:1,2014-11-11T11:00:00Z,25.0270,-80.6810,1.0,22.65,2 
ENP,ioos.station.NOAA.NDBC:BOBF1:1,2014-11-11T13:00:00Z,25.0270,-80.6810,1.0,22.35,2 
ENP,ioos.station.NOAA.NDBC:BOBF1:1,2014-11-11T14:00:00Z,25.0270,-80.6810,1.0,22.34,2 
ENP,ioos.station.NOAA.NDBC:BOBF1:1,2014-11-11T15:00:00Z,25.0270,-80.6810,1.0,22.65,2 
ENP,ioos.station.NOAA.NDBC:BOBF1:1,2014-11-11T16:00:00Z,25.0270,-80.6810,1.0,23.15,2 
ENP,ioos.station.NOAA.NDBC:BOBF1:1,2014-11-11T17:00:00Z,25.0270,-80.6810,1.0,23.59,2 
ENP,ioos.station.NOAA.NDBC:BOBF1:1,2014-11-11T18:00:00Z,25.0270,-80.6810,1.0,24.0,2 
ENP,ioos.station.NOAA.NDBC:BOBF1:1,2014-11-11T19:00:00Z,25.0270,-80.6810,1.0,24.15,2 
ENP,ioos.station.NOAA.NDBC:BOBF1:1,2014-11-11T20:00:00Z,25.0270,-80.6810,1.0,24.31,2 
ENP,ioos.station.NOAA.NDBC:BOBF1:1,2014-11-11T21:00:00Z,25.0270,-80.6810,1.0,24.28,2 
ENP,ioos.station.NOAA.NDBC:BOBF1:1,2014-11-11T22:00:00Z,25.0270,-80.6810,1.0,24.32,2 
ENP,ioos.station.NOAA.NDBC:BOBF1:1,2014-11-11T23:00:00Z,25.0270,-80.6810,1.0,24.43,2 
ENP,ioos.station.NOAA.NDBC:BOBF1:1,2014-11-12T17:00:00Z,25.0270,-80.6810,1.0,22.75,2 
ENP,ioos.station.NOAA.NDBC:BOBF1:1,2014-11-14T13:00:00Z,25.0270,-80.6810,1.0,23.64,2 
ENP,ioos.station.NOAA.NDBC:BOBF1:1,2014-11-14T14:00:00Z,25.0270,-80.6810,1.0,23.9,2 
ENP,ioos.station.NOAA.NDBC:BOBF1:1,2014-11-14T16:00:00Z,25.0270,-80.6810,1.0,24.35,2 
ENP,ioos.station.NOAA.NDBC:BOBF1:1,2014-11-14T17:00:00Z,25.0270,-80.6810,1.0,24.51,2 
ENP,ioos.station.NOAA.NDBC:BOBF1:1,2014-11-14T18:00:00Z,25.0270,-80.6810,1.0,24.71,2 
ENP,ioos.station.NOAA.NDBC:BOBF1:1,2014-11-14T19:00:00Z,25.0270,-80.6810,1.0,25.26,2 
ENP,ioos.station.NOAA.NDBC:BOBF1:1,2014-11-14T21:00:00Z,25.0270,-80.6810,1.0,25.1,2 
ENP,ioos.station.NOAA.NDBC:BOBF1:1,2014-11-14T22:00:00Z,25.0270,-80.6810,1.0,25.25,2 
ENP,ioos.station.NOAA.NDBC:BOBF1:1,2014-11-15T00:00:00Z,25.0270,-80.6810,1.0,24.94,2 
ENP,ioos.station.NOAA.NDBC:BOBF1:1,2014-11-15T01:00:00Z,25.0270,-80.6810,1.0,24.85,2 
ENP,ioos.station.NOAA.NDBC:BOBF1:1,2014-11-15T02:00:00Z,25.0270,-80.6810,1.0,24.71,2 
ENP,ioos.station.NOAA.NDBC:BOBF1:1,2014-11-15T03:00:00Z,25.0270,-80.6810,1.0,24.53,2 
ENP,ioos.station.NOAA.NDBC:BOBF1:1,2014-11-15T05:00:00Z,25.0270,-80.6810,1.0,24.16,2 
ENP,ioos.station.NOAA.NDBC:BOBF1:1,2014-11-15T06:00:00Z,25.0270,-80.6810,1.0,24.38,2 
ENP,ioos.station.NOAA.NDBC:BOBF1:1,2014-11-15T07:00:00Z,25.0270,-80.6810,1.0,24.4,2 
ENP,ioos.station.NOAA.NDBC:BOBF1:1,2014-11-15T09:00:00Z,25.0270,-80.6810,1.0,24.13,2 
ENP,ioos.station.NOAA.NDBC:BOBF1:1,2014-11-15T10:00:00Z,25.0270,-80.6810,1.0,23.95,2 
ENP,ioos.station.NOAA.NDBC:BOBF1:1,2014-11-15T11:00:00Z,25.0270,-80.6810,1.0,23.6,2 
ENP,ioos.station.NOAA.NDBC:BOBF1:1,2014-11-15T12:00:00Z,25.0270,-80.6810,1.0,23.44,2 
ENP,ioos.station.NOAA.NDBC:BOBF1:1,2014-11-15T13:00:00Z,25.0270,-80.6810,1.0,23.25,2 
ENP,ioos.station.NOAA.NDBC:BOBF1:1,2014-11-15T14:00:00Z,25.0270,-80.6810,1.0,23.25,2 
ENP,ioos.station.NOAA.NDBC:BOBF1:1,2014-11-15T15:00:00Z,25.0270,-80.6810,1.0,23.56,2 
ENP,ioos.station.NOAA.NDBC:BOBF1:1,2014-11-15T16:00:00Z,25.0270,-80.6810,1.0,24.29,2 
ENP,ioos.station.NOAA.NDBC:BOBF1:1,2014-11-15T17:00:00Z,25.0270,-80.6810,1.0,24.93,2 
ENP,ioos.station.NOAA.NDBC:BOBF1:1,2014-11-15T18:00:00Z,25.0270,-80.6810,1.0,25.45,2 
ENP,ioos.station.NOAA.NDBC:BOBF1:1,2014-11-15T19:00:00Z,25.0270,-80.6810,1.0,25.81,2 
ENP,ioos.station.NOAA.NDBC:BOBF1:1,2014-11-15T21:00:00Z,25.0270,-80.6810,1.0,26.24,2 
ENP,ioos.station.NOAA.NDBC:BOBF1:1,2014-11-15T22:00:00Z,25.0270,-80.6810,1.0,25.99,2 
ENP,ioos.station.NOAA.NDBC:BOBF1:1,2014-11-15T23:00:00Z,25.0270,-80.6810,1.0,24.95,2 
ENP,ioos.station.NOAA.NDBC:BOBF1:1,2014-11-16T00:00:00Z,25.0270,-80.6810,1.0,24.67,2 
ENP,ioos.station.NOAA.NDBC:BOBF1:1,2014-11-16T01:00:00Z,25.0270,-80.6810,1.0,24.5,2 
ENP,ioos.station.NOAA.NDBC:BOBF1:1,2014-11-16T02:00:00Z,25.0270,-80.6810,1.0,24.37,2 
ENP,ioos.station.NOAA.NDBC:BOBF1:1,2014-11-16T03:00:00Z,25.0270,-80.6810,1.0,24.25,2 
ENP,ioos.station.NOAA.NDBC:BOBF1:1,2014-11-16T05:00:00Z,25.0270,-80.6810,1.0,24.5,2 
ENP,ioos.station.NOAA.NDBC:BOBF1:1,2014-11-16T06:00:00Z,25.0270,-80.6810,1.0,24.65,2 
ENP,ioos.station.NOAA.NDBC:BOBF1:1,2014-11-16T07:00:00Z,25.0270,-80.6810,1.0,24.73,2 
ENP,ioos.station.NOAA.NDBC:BOBF1:1,2014-11-16T18:00:00Z,25.0270,-80.6810,1.0,25.58,2 
ENP,ioos.station.NOAA.NDBC:BOBF1:1,2014-11-16T19:00:00Z,25.0270,-80.6810,1.0,26.03,2 
ENP,ioos.station.NOAA.NDBC:BOBF1:1,2014-11-16T20:00:00Z,25.0270,-80.6810,1.0,26.29,2 
ENP,ioos.station.NOAA.NDBC:BOBF1:1,2014-11-16T21:00:00Z,25.0270,-80.6810,1.0,26.49,2 
ENP,ioos.station.NOAA.NDBC:BOBF1:1,2014-11-16T22:00:00Z,25.0270,-80.6810,1.0,26.57,2 
ENP,ioos.station.NOAA.NDBC:BOBF1:1,2014-11-17T00:00:00Z,25.0270,-80.6810,1.0,25.44,2 
ENP,ioos.station.NOAA.NDBC:BOBF1:1,2014-11-17T01:00:00Z,25.0270,-80.6810,1.0,25.16,2 
ENP,ioos.station.NOAA.NDBC:BOBF1:1,2014-11-17T02:00:00Z,25.0270,-80.6810,1.0,25.05,2 
ENP,ioos.station.NOAA.NDBC:BOBF1:1,2014-11-17T03:00:00Z,25.0270,-80.6810,1.0,24.96,2 
ENP,ioos.station.NOAA.NDBC:BOBF1:1,2014-11-17T04:00:00Z,25.0270,-80.6810,1.0,24.86,2 
ENP,ioos.station.NOAA.NDBC:BOBF1:1,2014-11-17T06:00:00Z,25.0270,-80.6810,1.0,24.99,2 
ENP,ioos.station.NOAA.NDBC:BOBF1:1,2014-11-17T08:00:00Z,25.0270,-80.6810,1.0,24.85,2 
ENP,ioos.station.NOAA.NDBC:BOBF1:1,2014-11-17T09:00:00Z,25.0270,-80.6810,1.0,24.73,2 
ENP,ioos.station.NOAA.NDBC:BOBF1:1,2014-11-17T10:00:00Z,25.0270,-80.6810,1.0,24.74,2 
ENP,ioos.station.NOAA.NDBC:BOBF1:1,2014-11-17T11:00:00Z,25.0270,-80.6810,1.0,24.74,2 
ENP,ioos.station.NOAA.NDBC:BOBF1:1,2014-11-17T13:00:00Z,25.0270,-80.6810,1.0,24.77,2 
ENP,ioos.station.NOAA.NDBC:BOBF1:1,2014-11-17T14:00:00Z,25.0270,-80.6810,1.0,24.87,2 
ENP,ioos.station.NOAA.NDBC:BOBF1:1,2014-11-17T15:00:00Z,25.0270,-80.6810,1.0,25.24,2 
ENP,ioos.station.NOAA.NDBC:BOBF1:1,2014-11-17T16:00:00Z,25.0270,-80.6810,1.0,25.87,2 
ENP,ioos.station.NOAA.NDBC:BOBF1:1,2014-11-17T17:00:00Z,25.0270,-80.6810,1.0,26.57,2 
ENP,ioos.station.NOAA.NDBC:BOBF1:1,2014-11-17T18:00:00Z,25.0270,-80.6810,1.0,26.84,2 
ENP,ioos.station.NOAA.NDBC:BOBF1:1,2014-11-17T19:00:00Z,25.0270,-80.6810,1.0,27.14,2 
ENP,ioos.station.NOAA.NDBC:BOBF1:1,2014-11-17T21:00:00Z,25.0270,-80.6810,1.0,27.21,2 
ENP,ioos.station.NOAA.NDBC:BOBF1:1,2014-11-17T22:00:00Z,25.0270,-80.6810,1.0,27.3,2 
ENP,ioos.station.NOAA.NDBC:BOBF1:1,2014-11-17T23:00:00Z,25.0270,-80.6810,1.0,27.2,2 
ENP,ioos.station.NOAA.NDBC:BOBF1:1,2014-11-18T00:00:00Z,25.0270,-80.6810,1.0,26.93,2 
ENP,ioos.station.NOAA.NDBC:BOBF1:1,2014-11-18T01:00:00Z,25.0270,-80.6810,1.0,26.69,2 
ENP,ioos.station.NOAA.NDBC:BOBF1:1,2014-11-18T02:00:00Z,25.0270,-80.6810,1.0,26.57,2 
ENP,ioos.station.NOAA.NDBC:BOBF1:1,2014-11-18T05:00:00Z,25.0270,-80.6810,1.0,26.73,2 
ENP,ioos.station.NOAA.NDBC:BOBF1:1,2014-11-18T06:00:00Z,25.0270,-80.6810,1.0,26.57,2 
ENP,ioos.station.NOAA.NDBC:BOBF1:1,2014-11-18T07:00:00Z,25.0270,-80.6810,1.0,26.39,2 
ENP,ioos.station.NOAA.NDBC:BOBF1:1,2014-11-18T09:00:00Z,25.0270,-80.6810,1.0,26.24,2 
ENP,ioos.station.NOAA.NDBC:BOBF1:1,2014-11-18T10:00:00Z,25.0270,-80.6810,1.0,26.17,2 
ENP,ioos.station.NOAA.NDBC:BOBF1:1,2014-11-18T11:00:00Z,25.0270,-80.6810,1.0,26.08,2 
ENP,ioos.station.NOAA.NDBC:BOBF1:1,2014-11-18T13:00:00Z,25.0270,-80.6810,1.0,25.88,2 
ENP,ioos.station.NOAA.NDBC:BOBF1:1,2014-11-18T14:00:00Z,25.0270,-80.6810,1.0,25.91,2 